Regional Weather Roundup
Issued by NWS

Home | Current Version | Previous Version | Graphics & Text | Print | Product List | Glossary On
Versions: 1 2 3 4 5 6 7 8 9 10 11 12 13 14 15 16 17 18 19 20 21 22 23 24 25 26 27 28 29 30 31 32 33 34 35 36 37 38 39 40 41 42 43 44 45 46 47 48 49 50
000
ASUS43 KBIS 070320
RWRND

NORTH DAKOTA REGIONAL WEATHER ROUNDUP
NATIONAL WEATHER SERVICE BISMARCK ND
1000 PM CDT WED MAY 06 2015

NOTE: "FAIR" INDICATES FEW OR NO CLOUDS BELOW 12,000 FEET WITH NO
SIGNIFICANT WEATHER AND/OR OBSTRUCTIONS TO VISIBILITY.


NDZ001>003-009>011-017-070400-
NORTHWEST NORTH DAKOTA

CITY           SKY/WX    TMP DP  RH WIND       PRES   REMARKS
WILLISTON      LGT RAIN  51  48  89 N18       29.75R
MINOT          CLOUDY    58  56  93 NW3       29.65R
MINOT AFB      LGT RAIN  59 N/A N/A NW7       29.64R
$$

NDZ018>021-031>035-040>046-070400-
SOUTHWEST NORTH DAKOTA

CITY           SKY/WX    TMP DP  RH WIND       PRES   REMARKS
BISMARCK       MOCLDY    60  57  89 E5        29.62R
DICKINSON      LGT RAIN  50  48  93 NW22G30   29.69R
GARRISON         N/A     60  58  92 NE3       29.64R
HETTINGER ARPT LGT RAIN  52  50  93 N25G35    29.68R FOG
$$

NDZ004>008-012>016-024-026-027-054-070400-
NORTHEAST NORTH DAKOTA

CITY           SKY/WX    TMP DP  RH WIND       PRES   REMARKS
GRAND FORKS    CLOUDY    62  59  90 SE12      29.67S
GRND FRKS AFB  CLOUDY    61  59  94 E10       29.66F
DEVILS LAKE    CLOUDY    59  55  88 E15       29.64S
$$

NDZ022-023-025-028>030-036>039-047>053-070400-
SOUTHEAST NORTH DAKOTA

CITY           SKY/WX    TMP DP  RH WIND       PRES   REMARKS
FARGO          MOCLDY    66  61  84 SE16      29.67S
JAMESTOWN      CLOUDY    62  60  93 SE13      29.61R
$$



USA.gov is the U.S. government's official web portal to all federal, state and local government web resources and services.